Probability
1 4 7 7 7 9 13 16 17 19 20 16 11 9 9 8 6 6 6 7 7 6 4 4 5 4 3 2 2 2 3 4 4 3 1 1 1 0 0 0 0 1 2
3 6 9 10 10 13 16 17 19 20 19 16 11 9 8 7 6 6 6 7 7 6 5 5 5 4 2 1 1 2 3 4 4 3 2 1 1 1 0 0 0 1 2
7 8 11 13 15 17 19 19 21 22 20 15 10 9 7 6 5 6 6 7 7 7 5 4 3 2 1 0 0 1 2 4 5 4 2 2 2 1 0 0 1 2 3
11 11 12 16 18 19 20 21 22 23 20 15 11 8 6 4 4 5 6 6 7 8 6 4 2 1 0 0 0 1 2 3 4 4 2 1 1 0 0 0 1 3 4
12 12 14 18 20 20 21 22 22 21 19 16 13 9 6 4 4 4 4 5 6 7 6 5 3 2 1 0 0 0 2 4 4 3 1 0 0 0 0 1 2 4 4
11 12 15 19 21 21 23 24 22 20 19 17 14 10 7 6 4 3 3 4 5 5 4 4 4 4 2 1 0 0 1 3 3 1 0 0 1 1 0 1 2 2 3
9 11 15 19 21 22 23 23 20 19 18 17 14 11 8 7 5 3 4 5 6 4 3 4 4 4 3 1 0 0 1 2 1 0 0 0 1 2 1 1 1 1 1
9 10 13 18 20 21 22 20 18 17 17 16 15 12 9 8 6 5 5 6 6 5 4 3 4 4 3 1 1 1 2 2 1 0 0 1 2 3 3 3 2 1 1
10 10 13 15 16 17 18 18 16 14 14 15 15 14 10 8 7 7 7 7 7 5 4 3 3 3 3 2 3 4 3 2 1 0 0 1 4 5 6 5 4 3 2
12 11 12 12 11 12 15 15 14 12 12 14 16 16 12 8 7 7 8 8 9 7 5 4 3 4 4 4 5 6 5 3 2 1 0 1 4 6 7 7 5 4 2
12 11 10 9 8 10 12 12 11 11 11 13 16 16 13 8 7 7 7 8 10 9 7 5 4 5 5 4 6 7 5 4 3 1 0 1 3 5 7 8 7 5 3
12 10 8 7 8 9 10 10 10 10 12 14 14 14 12 9 7 7 7 7 8 8 8 7 7 7 6 5 4 5 4 4 3 2 1 1 3 5 8 9 9 7 6
10 9 7 6 6 8 9 10 10 10 12 13 13 12 11 9 7 7 7 7 8 9 9 9 9 9 7 5 3 2 1 2 3 3 3 3 4 6 9 10 9 9 9
8 7 6 5 5 6 8 8 8 9 10 10 11 11 10 8 6 6 6 6 8 9 9 9 10 9 7 4 2 0 0 1 2 3 4 5 7 8 9 10 9 8 7
6 6 6 4 4 5 5 4 3 4 6 8 8 9 8 6 5 4 4 4 6 6 7 8 9 8 6 3 1 1 1 0 0 2 4 7 8 10 9 9 8 7 5
6 6 5 4 3 3 3 2 1 1 3 5 6 6 6 5 4 3 3 3 4 4 4 5 6 6 5 3 1 1 1 0 0 1 3 7 10 12 11 9 8 8 7
6 5 4 3 2 2 2 2 1 1 1 2 2 3 5 4 3 3 3 3 3 3 4 4 4 4 4 3 1 1 1 0 0 0 2 6 10 13 13 12 10 9 9
4 3 1 1 2 1 1 1 1 0 0 0 1 2 4 4 4 4 3 3 3 4 4 4 3 3 3 3 1 0 0 0 0 0 1 4 8 10 11 10 9 8 7
2 1 0 0 1 1 1 0 0 0 0 0 0 1 2 3 4 4 4 3 3 3 4 3 3 3 3 3 1 0 0 0 0 0 0 1 3 5 6 6 5 4 4
1 0 0 0 1 2 1 0 0 0 0 0 0 0 1 1 3 4 3 3 3 3 3 3 3 3 3 3 2 1 0 0 0 0 0 0 0 1 3 4 3 3 3
1 1 0 0 1 2 1 0 0 0 0 0 0 0 0 1 2 2 2 3 3 3 3 3 3 3 3 3 3 1 1 0 0 0 0 0 0 1 2 3 3 4 4
2 2 1 1 2 2 1 0 1 1 0 0 0 0 0 0 0 0 1 2 3 3 3 3 3 3 3 3 3 3 2 1 0 0 0 0 0 1 2 3 3 4 5
3 3 2 1 2 2 1 1 2 2 1 1 0 0 0 0 0 0 1 2 3 3 3 3 3 3 3 3 3 3 2 1 0 1 1 1 1 0 1 2 3 3 3
2 2 1 0 1 1 1 2 3 3 3 2 1 0 0 0 0 0 0 2 3 3 3 3 3 3 3 3 3 3 3 1 1 1 2 2 2 1 0 1 2 1 1
1 1 0 0 0 0 0 2 3 4 3 2 1 0 0 0 0 0 0 1 2 2 2 3 3 3 3 3 3 3 3 2 1 1 2 2 2 1 0 1 1 1 0
0 0 1 1 1 0 0 1 3 4 3 1 0 0 0 0 0 0 0 1 1 1 1 2 3 3 3 3 3 3 3 2 1 0 1 1 1 0 0 0 1 1 1
Wind_Speed
4 6 10 11 11 10 11 11 11 11 11 12 12 11 11 11 11 11 11 10 10 10 11 12 12 11 11 12 12 12 12 12 12 12 12 12 12 12 12 13 13 10 15
8 7 11 11 11 11 11 11 11 11 11 11 11 11 10 11 10 10 10 9 9 10 11 11 11 11 12 12 12 11 11 11 11 11 12 11 12 12 12 12 12 9 14
9 7 9 11 11 11 11 11 11 11 11 11 11 11 10 10 10 10 9 8 8 9 10 10 11 11 11 11 10 10 10 10 10 10 10 7 8 11 11 12 13 13 13
9 7 8 11 11 11 11 10 11 11 11 11 11 10 10 10 9 9 9 9 8 8 9 9 10 10 10 10 9 10 10 10 9 9 5 5 6 9 10 11 12 13 13
7 6 8 12 11 11 11 10 10 10 10 10 10 10 9 9 9 9 8 9 8 8 8 8 8 9 9 9 8 9 9 9 9 7 5 4 4 8 9 11 11 12 13
6 5 7 12 11 11 10 10 9 9 9 9 9 9 9 8 8 8 8 8 8 8 7 7 7 7 8 8 8 8 8 9 8 5 4 4 4 8 10 11 11 12 12
6 4 5 10 11 10 10 9 9 9 8 8 8 8 8 8 7 7 7 7 7 7 7 6 6 6 6 6 7 7 8 8 6 4 4 4 5 8 10 10 10 11 12
7 5 4 9 10 10 10 9 8 8 7 7 7 7 7 6 6 7 7 7 7 6 6 5 5 4 5 5 5 6 7 8 6 5 4 4 6 9 10 10 10 11 11
5 4 3 3 6 9 9 8 8 7 7 6 6 6 6 6 6 6 6 7 6 6 6 6 5 4 4 4 5 4 6 6 5 3 5 3 6 9 10 10 9 10 11
4 4 3 2 2 3 4 7 8 7 6 6 6 6 6 5 5 5 5 5 6 6 6 5 5 4 4 3 4 4 4 4 3 3 2 3 7 9 10 10 10 10 10
4 3 3 2 2 2 3 4 5 6 5 5 4 5 4 2 2 2 3 4 5 5 5 4 3 3 3 2 3 3 3 2 3 2 2 5 8 9 9 10 10 10 10
5 4 3 3 3 2 2 2 1 2 2 2 2 2 2 2 1 2 2 3 4 4 4 4 3 3 2 1 1 2 1 2 2 2 3 7 8 9 9 9 9 10 10
5 5 4 3 3 3 2 2 1 1 1 2 2 3 2 2 1 1 1 1 1 2 2 2 2 1 1 1 1 1 1 2 1 2 3 8 8 9 9 9 9 10 10
5 5 4 4 3 3 2 2 1 1 1 1 2 3 2 2 1 1 1 1 1 1 2 2 1 1 1 1 1 2 2 1 2 1 3 7 8 9 9 9 9 9 10
5 4 4 4 4 3 2 2 2 1 1 1 2 2 3 2 2 1 1 1 1 1 1 2 1 1 1 1 1 1 1 2 2 2 2 6 7 8 9 9 9 9 10
4 4 4 4 4 3 2 2 2 1 1 1 1 2 2 2 2 2 1 1 1 1 1 1 1 1 1 1 1 0 1 1 2 2 2 3 5 6 7 8 9 9 10
4 3 4 4 4 4 3 3 2 2 2 1 1 2 2 2 2 2 1 1 1 1 1 1 1 1 1 1 0 0 0 1 1 2 1 1 2 4 6 7 8 8 9
3 3 3 4 4 4 3 3 2 2 2 1 1 1 2 2 3 2 2 1 1 1 1 1 1 1 1 1 0 1 1 0 1 1 1 1 1 1 2 4 6 7 8
4 4 3 3 4 3 3 3 2 2 1 1 1 1 1 2 2 2 2 1 1 1 1 1 1 1 1 0 0 0 0 1 1 1 1 1 1 2 1 3 5 7 8
3 3 3 3 3 3 3 3 2 2 1 1 1 1 1 1 1 2 1 1 1 1 1 1 1 1 1 1 0 1 1 1 0 1 1 1 1 2 2 2 2 4 8
3 3 3 3 3 3 2 2 2 1 0 0 0 1 1 1 1 2 1 1 1 1 2 2 2 1 1 1 1 1 1 1 0 1 1 1 2 2 2 3 2 2 3
3 3 3 3 3 3 2 2 2 2 1 0 0 1 0 1 1 1 2 1 2 1 1 2 2 2 1 1 2 1 1 2 2 1 0 1 1 1 2 3 3 3 3
3 3 3 3 3 3 3 2 2 2 2 1 1 0 0 1 1 1 2 2 2 2 2 2 3 3 2 1 1 2 2 2 1 1 1 1 1 1 2 2 2 3 3
2 2 3 3 3 2 3 3 4 2 1 1 1 0 1 0 0 1 2 2 2 2 2 2 2 2 3 2 1 1 1 2 2 1 2 1 1 2 2 2 2 3 3
3 3 2 3 2 2 3 3 3 2 1 0 0 0 1 1 1 1 1 2 2 2 2 2 2 2 2 3 2 2 1 1 1 2 2 2 2 2 2 2 2 2 3
2 3 2 3 2 2 2 2 3 3 2 1 1 0 1 1 1 1 1 1 1 1 2 2 2 3 3 3 2 2 2 2 2 2 2 2 2 2 2 2 2 2 2
Wind_Direction
160 161 159 149 142 133 126 122 119 116 116 119 121 122 122 122 124 126 126 127 130 130 129 127 125 125 124 125 126 124 123 125 128 128 130 130 131 132 135 137 136 136 138
146 154 156 150 144 136 130 125 122 119 118 120 123 123 124 124 124 125 126 128 129 130 132 130 128 127 127 128 129 127 125 123 125 130 134 135 137 140 140 141 142 141 142
136 147 152 150 145 139 134 130 127 125 122 122 125 131 130 128 126 126 127 128 130 131 135 134 133 131 130 130 131 129 126 123 122 125 129 129 139 143 144 145 146 146 146
137 143 150 150 146 141 136 133 133 131 129 127 128 134 134 133 130 129 131 132 130 128 133 136 137 135 133 133 135 134 131 128 125 122 118 129 138 146 152 150 148 148 149
134 142 153 150 147 143 140 136 135 136 135 133 134 135 136 135 133 132 133 136 134 130 129 133 138 137 135 135 136 137 139 138 134 127 125 131 135 150 156 154 153 151 150
136 143 157 153 149 146 143 141 140 139 139 139 139 138 137 137 136 135 135 137 137 138 138 137 139 136 136 137 139 140 144 145 133 126 130 138 147 160 158 158 160 158 158
141 143 157 153 150 148 146 145 146 145 143 144 144 143 142 144 146 145 144 141 139 138 138 140 140 141 142 144 146 146 149 149 134 136 146 152 162 167 166 164 164 162 163
145 143 151 156 152 151 150 150 148 147 148 148 147 147 147 149 152 158 155 152 149 145 140 139 139 142 145 146 149 153 157 156 152 158 159 166 177 176 172 167 167 168 169
132 133 135 147 154 155 154 153 152 152 152 151 149 149 151 155 157 158 160 159 156 154 153 153 155 156 153 155 160 161 160 159 151 162 170 170 183 182 177 173 172 174 174
126 131 128 129 131 140 156 165 162 158 155 153 150 152 154 156 157 159 160 166 166 166 166 166 171 172 170 169 169 174 170 154 152 165 172 184 192 189 182 178 178 181 180
144 143 138 134 137 143 163 167 162 163 158 151 144 138 133 127 137 151 160 167 166 164 162 159 162 160 157 161 173 177 163 140 161 175 187 202 201 198 193 189 187 184 182
171 172 164 162 159 157 164 140 135 140 140 135 130 127 110 108 122 128 128 158 155 150 145 144 143 134 119 96 143 138 123 155 172 187 199 207 206 203 200 196 194 193 190
174 173 175 172 165 157 146 139 126 123 128 127 131 126 114 101 94 80 72 89 119 133 114 112 110 101 105 122 135 139 154 158 178 201 208 211 209 209 208 205 203 202 200
169 181 174 169 165 162 152 141 141 145 144 144 136 133 128 126 118 113 106 91 91 100 111 108 105 94 100 115 143 153 161 170 188 199 221 218 217 218 217 213 210 207 206
176 187 181 174 174 163 150 148 148 155 149 139 129 138 141 142 139 126 108 101 113 111 114 113 108 107 96 90 115 145 174 193 198 202 225 225 221 223 225 222 219 214 211
186 189 181 178 173 154 152 152 148 141 130 118 132 145 143 139 133 126 122 111 114 130 137 132 129 124 118 106 77 107 187 201 198 206 223 231 224 219 224 223 221 219 217
185 183 178 175 160 159 158 159 144 142 129 133 145 142 143 143 143 146 139 134 148 134 127 112 109 105 102 86 53 337 202 201 200 212 214 206 220 222 221 220 222 222 222
162 170 174 169 152 156 149 143 132 134 136 144 127 122 139 147 151 153 157 173 161 134 134 136 131 122 115 126 141 299 303 265 237 222 213 210 211 228 226 214 213 217 222
164 162 155 144 149 151 136 121 118 118 122 125 120 124 140 148 158 161 167 164 144 135 138 159 134 143 147 157 215 264 295 273 264 236 221 215 213 220 227 230 223 223 227
143 144 139 133 130 125 114 102 94 92 89 89 115 150 148 153 154 149 151 137 132 137 144 144 147 141 160 175 215 354 334 295 274 234 231 226 225 231 232 240 238 236 233
111 126 136 131 129 126 125 133 135 145 147 87 197 163 149 157 164 165 166 150 151 168 182 175 158 144 118 118 95 24 359 3 344 236 218 222 235 239 232 234 233 234 243
135 133 134 142 145 154 151 145 139 130 136 169 353 52 125 168 178 180 175 177 176 174 173 175 160 152 141 114 122 102 3 346 334 291 241 218 240 232 235 237 237 232 237
146 155 161 157 149 149 140 112 93 73 54 45 22 7 296 209 184 177 186 185 188 188 196 201 182 170 175 155 148 151 153 221 299 312 289 283 281 254 251 252 247 245 238
159 139 139 143 140 140 139 142 144 146 171 224 221 241 311 294 222 186 188 186 191 192 200 209 188 182 170 182 163 168 165 166 180 289 308 298 275 264 268 266 262 251 242
127 127 132 131 130 135 138 150 150 154 174 182 26 25 333 324 299 257 192 176 188 199 202 200 187 181 177 181 175 165 158 149 181 191 269 305 308 277 267 266 258 255 251
108 110 119 124 113 121 135 151 162 166 158 158 213 246 305 309 307 300 239 190 198 210 214 208 189 183 185 183 182 175 173 170 188 189 220 258 282 289 287 270 253 255 253